This is the latest recevied weather packets stored in our database for station/object ALAKES. If no packets are shown the sender has not sent any weather packets the latest 10 day(s).
| Time | Temp. | Humidity | Pressure | Rain* | Wind** | Luminosity | Snow |
|---|---|---|---|---|---|---|---|
| 1787776632 | 18.89° C | 21% | - | 0 mm | - | - | - |
| 1787776006 | 18.89° C | 22% | - | 0 mm | - | - | - |
| 1787775366 | 18.89° C | 23% | - | 0 mm | - | - | - |
| 1787774740 | 18.33° C | 24% | - | 0 mm | - | - | - |
| 1787774260 | 18.33° C | 27% | - | 0 mm | - | - | - |
| 1787774110 | 18.33° C | 27% | - | 0 mm | - | - | - |
| 1787773483 | 18.33° C | 28% | - | 0 mm | - | - | - |
| 1787772845 | 18.89° C | 27% | - | 0 mm | - | - | - |
| 1787772299 | 18.33° C | 27% | - | 0 mm | - | - | - |
| 1787772223 | 18.33° C | 27% | - | 0 mm | - | - | - |
| 1787771597 | 18.33° C | 28% | - | 0 mm | - | - | - |
| 1787770975 | 17.78° C | 27% | - | 0 mm | - | - | - |
| 1787770348 | 17.78° C | 30% | - | 0 mm | - | - | - |
| 1787769720 | 17.22° C | 30% | - | 0 mm | - | - | - |
| 1787769098 | 16.67° C | 30% | - | 0 mm | - | - | - |
| 1787768468 | 16.67° C | 30% | - | 0 mm | - | - | - |
| 1787767855 | 16.67° C | 30% | - | 0 mm | - | - | - |
| 1787767227 | 16.67° C | 28% | - | 0 mm | - | - | - |
| 1787766595 | 16.67° C | 29% | - | 0 mm | - | - | - |
| 1787765965 | 16.67° C | 32% | - | 0 mm | - | - | - |
| 1787765342 | 16.11° C | 32% | - | 0 mm | - | - | - |
| 1787764712 | 16.11° C | 34% | - | 0 mm | - | - | - |
| 1787764088 | 16.11° C | 33% | - | 0 mm | - | - | - |
| 1787763469 | 15.56° C | 34% | - | 0 mm | - | - | - |
| 1787762843 | 15° C | 34% | - | 0 mm | - | - | - |
* Rain latest 24 hours (hover to see other rain measurements)
** Current wind speed in m/s (hover to see current wind gust speed)